TimeCDT,TemperatureF,Dew PointF,Humidity,Sea Level PressureIn,VisibilityMPH,Wind Direction,Wind SpeedMPH,Gust SpeedMPH,PrecipitationIn,Events,Conditions,WindDirDegrees,DateUTC
12:58 AM,73.2,70.0,90,30.00,10.0,SSW,3.5,-,N/A,,Clear,200,2013-08-28 05:58:00
1:58 AM,73.0,70.0,90,29.99,10.0,SW,3.5,-,N/A,,Clear,220,2013-08-28 06:58:00
2:58 AM,72.0,69.8,93,29.99,10.0,SW,5.8,-,N/A,,Clear,230,2013-08-28 07:58:00
3:58 AM,71.6,68.9,91,30.00,10.0,South,3.5,-,N/A,,Clear,180,2013-08-28 08:58:00
4:58 AM,69.4,68.7,98,30.01,10.0,South,1.2,-,N/A,,Clear,170,2013-08-28 09:58:00
5:58 AM,69.6,69.1,98,30.02,10.0,Calm,Calm,-,N/A,,Clear,0,2013-08-28 10:58:00
6:58 AM,68.9,68.7,99,30.04,10.0,South,2.3,-,N/A,,Clear,170,2013-08-28 11:58:00
7:58 AM,73.9,70.5,89,30.04,10.0,SW,4.6,-,N/A,,Clear,220,2013-08-28 12:58:00
8:58 AM,80.8,71.2,73,30.04,10.0,West,5.8,-,N/A,,Clear,280,2013-08-28 13:58:00
9:58 AM,86.2,69.6,58,30.04,10.0,West,8.1,-,N/A,,Clear,280,2013-08-28 14:58:00
10:58 AM,88.7,68.4,51,30.04,10.0,WNW,11.5,-,N/A,,Clear,290,2013-08-28 15:58:00
11:58 AM,91.2,68.7,47,30.03,10.0,Variable,6.9,-,N/A,,Clear,0,2013-08-28 16:58:00
12:58 PM,92.1,67.8,45,30.02,10.0,West,9.2,-,N/A,,Clear,260,2013-08-28 17:58:00
1:58 PM,93.0,67.1,42,30.01,10.0,WSW,8.1,-,N/A,,Clear,250,2013-08-28 18:58:00
2:58 PM,93.7,67.5,42,29.99,10.0,Variable,5.8,-,N/A,,Clear,0,2013-08-28 19:58:00
3:58 PM,94.6,67.3,41,29.98,10.0,West,3.5,-,N/A,,Clear,270,2013-08-28 20:58:00
4:58 PM,94.5,65.7,39,29.97,10.0,Variable,3.5,-,N/A,,Clear,0,2013-08-28 21:58:00
5:53 PM,93.2,68.0,44,29.97,10.0,ENE,3.5,-,N/A,,Light Drizzle,60,2013-08-28 22:53:00
5:58 PM,93.0,68.0,44,29.97,10.0,ENE,2.3,-,0.00,,Light Drizzle,70,2013-08-28 22:58:00
6:00 PM,93.2,68.0,44,29.97,10.0,East,2.3,-,N/A,,Clear,90,2013-08-28 23:00:00
6:58 PM,90.0,71.1,54,29.98,10.0,NE,2.3,-,0.00,,Clear,50,2013-08-28 23:58:00
7:58 PM,82.6,74.3,76,29.99,10.0,Calm,Calm,-,N/A,,Clear,0,2013-08-29 00:58:00
8:58 PM,77.2,74.8,92,30.00,10.0,Calm,Calm,-,N/A,,Clear,0,2013-08-29 01:58:00
9:58 PM,76.8,74.5,92,30.00,10.0,West,2.3,-,N/A,,Clear,280,2013-08-29 02:58:00
10:58 PM,74.8,72.5,92,29.99,10.0,Calm,Calm,-,N/A,,Clear,0,2013-08-29 03:58:00
11:58 PM,76.3,71.1,84,29.99,10.0,Calm,Calm,-,N/A,,Clear,0,2013-08-29 04:58:00